Location: Girdwood
(60.9430°N, 149.1660°W)
Time: 11:09:43
(UTC-08:00)

Iridium 86 - Visible Passes

Search period start: 27 March 2015 00:00
Search period end: 06 April 2015 00:00
Orbit: 776 x 779 km, 86.4° (Epoch: 26 March)

Date Brightness Start Highest point End Pass type
(mag) Time Alt. Az. Time Alt. Az. Time Alt. Az.
27 Mar 8.1 01:37:11 10° NW 01:39:08 12° WNW 01:40:55 10° W visible
27 Mar 6.5 21:40:16 10° N 21:44:52 30° ENE 21:48:53 13° SE visible
27 Mar 5.8 23:20:54 10° N 23:26:07 69° W 23:29:23 23° S visible
28 Mar 7.9 01:02:38 10° NNW 01:06:02 17° WNW 01:09:19 10° WSW visible
28 Mar 5.5 22:47:17 10° N 22:52:34 81° E 22:56:17 20° S visible
29 Mar 7.4 00:28:36 10° NNW 00:32:50 25° WNW 00:36:47 11° SW visible
29 Mar 5.7 22:13:46 10° N 22:18:55 55° ENE 22:23:13 15° SSE visible
29 Mar 6.8 23:54:46 10° NNW 23:59:33 36° W 00:03:43 13° SW visible
30 Mar 6.2 21:40:18 10° N 21:45:09 37° ENE 21:50:01 10° SE visible
30 Mar 6.2 23:21:03 10° NNW 23:26:10 54° W 23:30:40 13° SSW visible
31 Mar 8.1 01:03:13 10° NW 01:05:53 14° WNW 01:08:23 10° W visible
31 Mar 5.6 22:47:25 10° N 22:52:40 80° W 22:57:38 11° S visible
01 Apr 7.8 00:28:57 10° NNW 00:32:44 20° WNW 00:36:25 10° WSW visible
01 Apr 5.5 22:13:50 10° N 22:19:05 70° E 22:24:19 10° SSE visible
01 Apr 7.3 23:55:01 10° NNW 23:59:30 29° WNW 00:03:54 10° SW visible
02 Apr 5.9 21:40:20 10° N 21:45:23 47° ENE 21:50:27 10° SSE visible
02 Apr 6.7 23:21:14 10° NNW 23:26:10 42° W 23:31:03 10° SSW visible
03 Apr 8.3 01:04:15 10° NW 01:05:41 11° WNW 01:06:55 10° WNW visible
03 Apr 6.0 22:47:33 10° N 22:52:44 63° W 22:57:54 10° S visible
04 Apr 8.1 00:29:25 10° NNW 00:32:36 16° WNW 00:35:39 10° WSW visible
04 Apr 5.5 22:13:56 10° N 22:19:13 88° E 22:24:28 10° S visible
04 Apr 7.7 23:55:18 10° NNW 23:59:25 23° WNW 00:03:25 10° SW visible
05 Apr 5.7 21:40:23 10° N 21:45:34 60° ENE 21:50:45 10° SSE visible
05 Apr 7.1 23:21:27 10° NNW 23:26:08 34° W 23:30:45 10° SW visible
